| time (UTC) | temp F | wind direction | speed knots | gust knots | rain 1hr in | rain 24hr in | rain mn in | humidity % | barometer mb |
| 20260904173727 | 96 | 134 | 4.3 | 11.3 | 0.00 | 0.00 | 0.00 | 42 | 1012.2 |
| 20260904172827 | 96 | 149 | 4.3 | 8.7 | 0.00 | 0.00 | 0.00 | 43 | 1012.2 |
| 20260904171027 | 94 | 154 | 5.2 | 11.3 | 0.00 | 0.00 | 0.00 | 46 | 1012.3 |
| 20260904165227 | 94 | 150 | 4.3 | 13.0 | 0.00 | 0.00 | 0.00 | 47 | 1012.1 |
| 20260904164327 | 94 | 135 | 4.3 | 9.6 | 0.00 | 0.00 | 0.00 | 47 | 1012.0 |
| 20260904163427 | 93 | 168 | 4.3 | 9.6 | 0.00 | 0.00 | 0.00 | 48 | 1012.0 |
| 20260904162527 | 93 | 160 | 6.1 | 13.0 | 0.00 | 0.00 | 0.00 | 48 | 1011.9 |
| 20260904161627 | 92 | 155 | 5.2 | 12.2 | 0.00 | 0.00 | 0.00 | 49 | 1012.0 |
| 20260904160727 | 91 | 147 | 4.3 | 9.6 | 0.00 | 0.00 | 0.00 | 51 | 1012.0 |
| 20260904155827 | 91 | 140 | 4.3 | 8.7 | 0.00 | 0.00 | 0.00 | 52 | 1012.0 |
| 20260904154927 | 90 | 147 | 5.2 | 8.7 | 0.00 | 0.00 | 0.00 | 53 | 1012.0 |
| 20260904154027 | 90 | 155 | 4.3 | 10.4 | 0.00 | 0.00 | 0.00 | 53 | 1011.9 |
| 20260904151327 | 89 | 134 | 4.3 | 10.4 | 0.00 | 0.00 | 0.00 | 55 | 1011.9 |
| 20260904150427 | 89 | 153 | 2.6 | 8.7 | 0.00 | 0.00 | 0.00 | 56 | 1011.8 |
| 20260904145527 | 89 | 131 | 2.6 | 6.1 | 0.00 | 0.00 | 0.00 | 56 | 1011.7 |
| 20260904144627 | 88 | 145 | 3.5 | 8.7 | 0.00 | 0.00 | 0.00 | 57 | 1011.6 |
| 20260904142827 | 87 | 158 | 2.6 | 11.3 | 0.00 | 0.00 | 0.00 | 58 | 1011.4 |
| 20260904141927 | 86 | 153 | 2.6 | 6.1 | 0.00 | 0.00 | 0.00 | 60 | 1011.4 |
| 20260904141027 | 86 | 151 | 2.6 | 7.8 | 0.00 | 0.00 | 0.00 | 61 | 1011.2 |
| 20260904140127 | 85 | 154 | 1.7 | 5.2 | 0.00 | 0.00 | 0.00 | 61 | 1011.1 |
| 20260904135227 | 85 | 148 | 1.7 | 4.3 | 0.00 | 0.00 | 0.00 | 61 | 1011.0 |
| 20260904134327 | 85 | 159 | 1.7 | 5.2 | 0.00 | 0.00 | 0.00 | 62 | 1010.9 |
| 20260904133427 | 84 | 147 | 0.9 | 5.2 | 0.00 | 0.00 | 0.00 | 62 | 1010.8 |
| 20260904132527 | 84 | 134 | 0.9 | 3.5 | 0.00 | 0.00 | 0.00 | 62 | 1010.6 |
| 20260904131627 | 84 | 128 | 0.9 | 4.3 | 0.00 | 0.00 | 0.00 | 62 | 1010.5 |
| 20260904130727 | 84 | 102 | 0.9 | 2.6 | 0.00 | 0.00 | 0.00 | 61 | 1010.3 |
| 20260904125827 | 84 | 102 | 0.9 | 3.5 | 0.00 | 0.00 | 0.00 | 61 | 1010.2 |
| 20260904124027 | 85 | 91 | 0.9 | 3.5 | 0.00 | 0.00 | 0.00 | 60 | 1010.0 |
| 20260904123127 | 85 | 101 | 0.9 | 2.6 | 0.00 | 0.00 | 0.00 | 60 | 1009.9 |
| 20260904122227 | 85 | 151 | 1.7 | 5.2 | 0.00 | 0.00 | 0.00 | 59 | 1009.8 |
| 20260904121327 | 85 | 152 | 3.5 | 7.8 | 0.00 | 0.00 | 0.00 | 59 | 1009.7 |
| 20260904120427 | 86 | 152 | 3.5 | 7.8 | 0.00 | 0.00 | 0.00 | 59 | 1009.7 |
| 20260904115527 | 85 | 151 | 3.5 | 9.6 | 0.00 | 0.00 | 0.00 | 59 | 1009.6 |
| 20260904114627 | 86 | 152 | 4.3 | 7.8 | 0.00 | 0.00 | 0.00 | 58 | 1009.6 |
| 20260904111926 | 86 | 150 | 2.6 | 7.0 | 0.00 | 0.00 | 0.00 | 58 | 1009.6 |
| 20260904111026 | 86 | 156 | 3.5 | 8.7 | 0.00 | 0.00 | 0.00 | 57 | 1009.6 |
| 20260904110127 | 86 | 155 | 2.6 | 8.7 | 0.00 | 0.00 | 0.00 | 57 | 1009.6 |
| 20260904105227 | 86 | 155 | 2.6 | 7.8 | 0.00 | 0.00 | 0.00 | 57 | 1009.6 |
| 20260904104327 | 86 | 151 | 1.7 | 7.8 | 0.00 | 0.00 | 0.00 | 57 | 1009.5 |
| 20260904103426 | 86 | 155 | 2.6 | 7.0 | 0.00 | 0.00 | 0.00 | 57 | 1009.5 |
| 20260904101627 | 86 | 145 | 1.7 | 7.8 | 0.00 | 0.00 | 0.00 | 57 | 1009.4 |
| 20260904100726 | 86 | 139 | 0.0 | 2.6 | 0.00 | 0.00 | 0.00 | 56 | 1009.2 |
| 20260904095826 | 86 | 158 | 0.9 | 3.5 | 0.00 | 0.00 | 0.00 | 56 | 1009.2 |
| 20260904094926 | 86 | 150 | 0.9 | 6.1 | 0.00 | 0.00 | 0.00 | 55 | 1009.2 |
| 20260904094026 | 86 | 155 | 0.9 | 4.3 | 0.00 | 0.00 | 0.00 | 56 | 1009.2 |
| 20260904093126 | 86 | 148 | 1.7 | 7.0 | 0.00 | 0.00 | 0.00 | 55 | 1009.2 |
| 20260904091327 | 86 | 151 | 1.7 | 5.2 | 0.00 | 0.00 | 0.00 | 55 | 1009.2 |
| 20260904090426 | 87 | 152 | 0.9 | 5.2 | 0.00 | 0.00 | 0.00 | 55 | 1009.2 |
| 20260904084626 | 87 | 151 | 0.0 | 2.6 | 0.00 | 0.00 | 0.00 | 55 | 1009.2 |
| 20260904083726 | 87 | 158 | 0.9 | 3.5 | 0.00 | 0.00 | 0.00 | 54 | 1009.2 |
| 20260904082826 | 87 | 186 | 0.0 | 2.6 | 0.00 | 0.00 | 0.00 | 54 | 1009.3 |
| 20260904081926 | 87 | 174 | 0.9 | 3.5 | 0.00 | 0.00 | 0.00 | 53 | 1009.3 |
| 20260904081026 | 88 | 160 | 0.9 | 3.5 | 0.00 | 0.00 | 0.00 | 53 | 1009.4 |
| 20260904080126 | 88 | 149 | 1.7 | 3.5 | 0.00 | 0.00 | 0.00 | 53 | 1009.4 |
| 20260904075226 | 88 | 161 | 0.9 | 5.2 | 0.00 | 0.00 | 0.00 | 52 | 1009.3 |
| 20260904074326 | 88 | 171 | 0.9 | 5.2 | 0.00 | 0.00 | 0.00 | 52 | 1009.3 |
| 20260904072526 | 88 | 149 | 0.9 | 7.0 | 0.00 | 0.00 | 0.00 | 52 | 1009.2 |
| 20260904070726 | 88 | 153 | 1.7 | 6.1 | 0.00 | 0.00 | 0.00 | 53 | 1009.1 |
| 20260904065826 | 88 | 166 | 1.7 | 8.7 | 0.00 | 0.00 | 0.00 | 53 | 1009.0 |
| 20260904064926 | 89 | 165 | 1.7 | 4.3 | 0.00 | 0.00 | 0.00 | 53 | 1008.9 |
| 20260904064026 | 89 | 160 | 2.6 | 6.1 | 0.00 | 0.00 | 0.00 | 52 | 1008.8 |
| 20260904063126 | 89 | 154 | 3.5 | 8.7 | 0.00 | 0.00 | 0.00 | 52 | 1008.8 |
| 20260904061326 | 90 | 149 | 3.5 | 9.6 | 0.00 | 0.00 | 0.00 | 50 | 1008.7 |
| 20260904060426 | 90 | 169 | 1.7 | 7.0 | 0.00 | 0.00 | 0.00 | 49 | 1008.6 |
| 20260904055526 | 90 | 177 | 1.7 | 6.1 | 0.00 | 0.00 | 0.00 | 48 | 1008.7 |
| 20260904054626 | 90 | 169 | 2.6 | 6.1 | 0.00 | 0.00 | 0.00 | 48 | 1008.7 |
| 20260904053726 | 90 | 183 | 2.6 | 5.2 | 0.00 | 0.00 | 0.00 | 48 | 1008.7 |
| 20260904052826 | 90 | 189 | 2.6 | 7.0 | 0.00 | 0.00 | 0.00 | 48 | 1008.6 |
| 20260904051926 | 90 | 186 | 2.6 | 7.0 | 0.00 | 0.00 | 0.00 | 47 | 1008.4 |
| 20260904051026 | 90 | 173 | 2.6 | 7.0 | 0.00 | 0.00 | 0.00 | 47 | 1008.4 |
| 20260904050126 | 90 | 184 | 3.5 | 7.0 | 0.00 | 0.00 | 0.00 | 46 | 1008.4 |
| 20260904045226 | 91 | 178 | 3.5 | 8.7 | 0.00 | 0.00 | 0.00 | 45 | 1008.3 |
| 20260904044326 | 91 | 184 | 2.6 | 7.0 | 0.00 | 0.00 | 0.00 | 44 | 1008.4 |
| 20260904042526 | 92 | 194 | 1.7 | 6.1 | 0.00 | 0.00 | 0.00 | 43 | 1008.4 |
| 20260904041626 | 92 | 192 | 1.7 | 5.2 | 0.00 | 0.00 | 0.00 | 43 | 1008.3 |
| 20260904040726 | 92 | 171 | 1.7 | 6.1 | 0.00 | 0.00 | 0.00 | 42 | 1008.1 |
| 20260904035826 | 92 | 178 | 0.9 | 3.5 | 0.00 | 0.00 | 0.00 | 41 | 1008.0 |
| 20260904034026 | 92 | 170 | 1.7 | 4.3 | 0.00 | 0.00 | 0.00 | 41 | 1007.8 |
| 20260904033126 | 92 | 156 | 1.7 | 6.1 | 0.00 | 0.00 | 0.00 | 42 | 1007.7 |
| 20260904032226 | 92 | 124 | 0.9 | 4.3 | 0.00 | 0.00 | 0.00 | 42 | 1007.5 |
| 20260904031326 | 92 | 125 | 1.7 | 4.3 | 0.00 | 0.00 | 0.00 | 42 | 1007.4 |
| 20260904030426 | 92 | 145 | 0.9 | 5.2 | 0.00 | 0.00 | 0.00 | 42 | 1007.2 |
| 20260904025526 | 93 | 131 | 0.9 | 5.2 | 0.00 | 0.00 | 0.00 | 42 | 1007.1 |
| 20260904024626 | 93 | 132 | 1.7 | 5.2 | 0.00 | 0.00 | 0.00 | 42 | 1007.0 |
| 20260904022826 | 93 | 145 | 2.6 | 8.7 | 0.00 | 0.00 | 0.00 | 41 | 1006.9 |
| 20260904021026 | 94 | 155 | 6.1 | 10.4 | 0.00 | 0.00 | 0.00 | 41 | 1006.9 |
| 20260904020126 | 94 | 156 | 6.1 | 12.2 | 0.00 | 0.00 | 0.00 | 40 | 1007.0 |
| 20260904014326 | 94 | 163 | 6.1 | 12.2 | 0.00 | 0.00 | 0.00 | 39 | 1007.0 |
| 20260904013426 | 95 | 166 | 7.0 | 15.6 | 0.00 | 0.00 | 0.00 | 38 | 1006.9 |
| 20260904012526 | 96 | 179 | 6.1 | 14.8 | 0.00 | 0.00 | 0.00 | 37 | 1006.9 |
| 20260904011626 | 98 | 199 | 1.7 | 14.8 | 0.00 | 0.00 | 0.00 | 34 | 1006.6 |
| 20260904010726 | 99 | 181 | 2.6 | 6.1 | 0.00 | 0.00 | 0.00 | 32 | 1006.5 |
| 20260904005826 | 99 | 191 | 3.5 | 8.7 | 0.00 | 0.00 | 0.00 | 32 | 1006.6 |
| 20260904004926 | 99 | 188 | 3.5 | 8.7 | 0.00 | 0.00 | 0.00 | 31 | 1006.6 |
| 20260904004026 | 100 | 197 | 2.6 | 7.0 | 0.00 | 0.00 | 0.00 | 31 | 1006.6 |
| 20260904003126 | 100 | 193 | 1.7 | 7.0 | 0.00 | 0.00 | 0.00 | 31 | 1006.5 |
| 20260904002226 | 100 | 248 | 2.6 | 7.0 | 0.00 | 0.00 | 0.00 | 30 | 1006.5 |
| 20260904001325 | 100 | 201 | 3.5 | 6.1 | 0.00 | 0.00 | 0.00 | 30 | 1006.6 |
| 20260904000426 | 100 | 181 | 2.6 | 15.6 | 0.00 | 0.00 | 0.00 | 31 | 1006.4 |
| 20260903235526 | 100 | 154 | 2.6 | 7.8 | 0.00 | 0.00 | 0.00 | 30 | 1006.7 |
| 20260903232825 | 102 | 155 | 2.6 | 8.7 | 0.00 | 0.00 | 0.00 | 28 | 1006.8 |
| 20260903231926 | 102 | 201 | 2.6 | 7.0 | 0.00 | 0.00 | 0.00 | 29 | 1006.9 |
| 20260903231026 | 102 | 140 | 2.6 | 9.6 | 0.00 | 0.00 | 0.00 | 29 | 1007.0 |
| 20260903230125 | 102 | 192 | 1.7 | 5.2 | 0.00 | 0.00 | 0.00 | 29 | 1007.1 |
| 20260903225225 | 103 | 246 | 2.6 | 7.8 | 0.00 | 0.00 | 0.00 | 28 | 1007.1 |
| 20260903224326 | 103 | 244 | 2.6 | 7.8 | 0.00 | 0.00 | 0.00 | 28 | 1007.4 |
| 20260903223426 | 102 | 46 | 1.7 | 4.3 | 0.00 | 0.00 | 0.00 | 29 | 1007.5 |
| 20260903222525 | 101 | 160 | 3.5 | 7.8 | 0.00 | 0.00 | 0.00 | 30 | 1007.6 |
| 20260903221625 | 101 | 106 | 3.5 | 8.7 | 0.00 | 0.00 | 0.00 | 30 | 1007.7 |
| 20260903220725 | 102 | 215 | 3.5 | 9.6 | 0.00 | 0.00 | 0.00 | 29 | 1007.8 |
| 20260903215825 | 102 | 210 | 3.5 | 12.2 | 0.00 | 0.00 | 0.00 | 29 | 1007.9 |
| 20260903214926 | 103 | 303 | 3.5 | 8.7 | 0.00 | 0.00 | 0.00 | 28 | 1008.0 |
| 20260903214025 | 102 | 218 | 4.3 | 8.7 | 0.00 | 0.00 | 0.00 | 29 | 1008.3 |
| 20260903213125 | 101 | 155 | 3.5 | 11.3 | 0.00 | 0.00 | 0.00 | 30 | 1008.5 |
| 20260903212225 | 102 | 121 | 3.5 | 10.4 | 0.00 | 0.00 | 0.00 | 30 | 1008.6 |
| 20260903211325 | 102 | 137 | 3.5 | 8.7 | 0.00 | 0.00 | 0.00 | 30 | 1008.7 |
| 20260903210425 | 101 | 150 | 2.6 | 7.8 | 0.00 | 0.00 | 0.00 | 30 | 1008.9 |
| 20260903205525 | 102 | 187 | 4.3 | 10.4 | 0.00 | 0.00 | 0.00 | 29 | 1009.1 |
| 20260903204625 | 101 | 157 | 4.3 | 7.8 | 0.00 | 0.00 | 0.00 | 30 | 1009.2 |
| 20260903203725 | 101 | 173 | 4.3 | 8.7 | 0.00 | 0.00 | 0.00 | 29 | 1009.4 |
| 20260903202825 | 101 | 190 | 4.3 | 8.7 | 0.00 | 0.00 | 0.00 | 30 | 1009.6 |
| 20260903201925 | 101 | 177 | 4.3 | 11.3 | 0.00 | 0.00 | 0.00 | 29 | 1009.7 |
| 20260903201025 | 101 | 187 | 3.5 | 8.7 | 0.00 | 0.00 | 0.00 | 31 | 1009.7 |
| 20260903200125 | 101 | 158 | 4.3 | 9.6 | 0.00 | 0.00 | 0.00 | 30 | 1009.8 |
| 20260903195225 | 100 | 150 | 2.6 | 7.8 | 0.00 | 0.00 | 0.00 | 32 | 1009.9 |
| 20260903194325 | 98 | 125 | 2.6 | 7.0 | 0.00 | 0.00 | 0.00 | 32 | 1010.0 |
| 20260903193425 | 99 | 189 | 4.3 | 7.0 | 0.00 | 0.00 | 0.00 | 33 | 1010.2 |
| 20260903192525 | 99 | 128 | 3.5 | 10.4 | 0.00 | 0.00 | 0.00 | 34 | 1010.3 |
| 20260903191625 | 99 | 202 | 3.5 | 8.7 | 0.00 | 0.00 | 0.00 | 34 | 1010.5 |
| 20260903190725 | 98 | 148 | 3.5 | 10.4 | 0.00 | 0.00 | 0.00 | 34 | 1010.7 |
| 20260903185825 | 99 | 141 | 3.5 | 9.6 | 0.00 | 0.00 | 0.00 | 33 | 1010.8 |
| 20260903184025 | 98 | 160 | 3.5 | 9.6 | 0.00 | 0.00 | 0.00 | 36 | 1011.1 |
| 20260903182225 | 97 | 156 | 3.5 | 10.4 | 0.00 | 0.00 | 0.00 | 36 | 1011.4 |
| 20260903181325 | 97 | 149 | 3.5 | 7.8 | 0.00 | 0.00 | 0.00 | 37 | 1011.6 |
| 20260903180425 | 96 | 176 | 3.5 | 8.7 | 0.00 | 0.00 | 0.00 | 37 | 1011.7 |
| 20260903175525 | 97 | 160 | 3.5 | 10.4 | 0.00 | 0.00 | 0.00 | 38 | 1011.8 |
| 20260903174625 | 96 | 168 | 3.5 | 9.6 | 0.00 | 0.00 | 0.00 | 39 | 1011.9 |